Huntsville, AL

7:58 AM CST on January 24, 2017 (GMT -0600)
Huntsville International

Weather History for KHSV - March, 2013

Change the Weather History Date:

Wednesday, March 6, 2013

  Actual Average Record
Temperature  
Mean Temperature 38 °F 51 °F  
Max Temperature 44 °F 62 °F 82 °F (1910)
Min Temperature 31 °F 40 °F 16 °F (2015)
Degree Days  
Heating Degree Days 27 14  
Month to date heating degree days 150 90  
Since 1 July heating degree days 2422 2542  
Cooling Degree Days 0 0  
Month to date cooling degree days 0 0  
Year to date cooling degree days 6 1  
Moisture  
Dew Point 26 °F    
Average Humidity 68    
Maximum Humidity 82    
Minimum Humidity 53    
Precipitation  
Precipitation 0.00 in 0.17 in 2.21 in (1996)
Month to date precipitation 0.79 1.00  
Year to date precipitation 12.67 10.73  
Snow  
Snow 0.00 in - - ()
Month to date snowfall T  
Since 1 July snowfall 0.7  
Snow Depth 0.00 in    
Sea Level Pressure  
Sea Level Pressure 30.22 in    
Wind  
Wind Speed 11 mph (NNW)    
Max Wind Speed 22 mph    
Max Gust Speed 31 mph    
Visibility 10 miles    
Events      
T = Trace of Precipitation, MM = Missing Value Source: NWS Daily Summary

Daily Weather History Graph

Daily Weather History Graph

Search for Another Location

Airport or City:

Trip Planner

Search our weather history database for the weather conditions in past years. The results will help you decide how hot, cold, wet, or windy it might be!

Date:

Astronomy

Mar. 06, 2013 Rise Set
Actual Time 6:09 AM CST 5:47 PM CST
Civil Twilight 5:44 AM CST 6:12 PM CST
Nautical Twilight 5:15 AM CST 6:41 PM CST
Astronomical Twilight 4:45 AM CST 7:11 PM CST
Moon 2:07 AM CST (3/6) 12:38 PM CST (3/6)
Length of Visible Light 12h 28m
Length of Day
11h 38m
Waning Crescent, 29% of the Moon is Illuminated
Mar 6
Waning Crescent
Mar 11
New
Mar 19
First Quarter
Mar 27
Full
Apr 2
Last Quarter

Hourly Weather History & Observations

Time (CST) Temp. Windchill Dew Point Humidity Pressure Visibility Wind Dir Wind Speed Gust Speed Precip Events Conditions
12:53 AM 34.0 °F 25.0 °F 19.9 °F 56% 30.08 in 10.0 mi WNW 12.7 mph - N/A   Clear
1:53 AM 34.0 °F 24.2 °F 21.0 °F 59% 30.08 in 10.0 mi NW 15.0 mph 24.2 mph N/A   Clear
2:53 AM 35.1 °F 25.9 °F 21.9 °F 59% 30.09 in 10.0 mi WNW 13.8 mph 21.9 mph N/A   Overcast
3:53 AM 35.1 °F 24.5 °F 21.9 °F 59% 30.10 in 10.0 mi NW 18.4 mph 23.0 mph N/A   Overcast
4:53 AM 35.1 °F 24.5 °F 21.9 °F 59% 30.13 in 10.0 mi NW 18.4 mph 27.6 mph N/A   Overcast
5:53 AM 35.1 °F 25.5 °F 21.9 °F 59% 30.14 in 10.0 mi NW 15.0 mph 26.5 mph N/A   Overcast
6:53 AM 35.1 °F 25.9 °F 23.0 °F 61% 30.17 in 10.0 mi NW 13.8 mph 23.0 mph N/A   Overcast
7:53 AM 35.1 °F 27.4 °F 25.0 °F 67% 30.22 in 10.0 mi NW 10.4 mph 20.7 mph N/A   Overcast
8:53 AM 37.0 °F 28.1 °F 25.0 °F 62% 30.23 in 10.0 mi WNW 15.0 mph 25.3 mph N/A   Mostly Cloudy
9:53 AM 37.0 °F 28.5 °F 25.0 °F 62% 30.25 in 10.0 mi NW 13.8 mph 21.9 mph N/A   Overcast
10:53 AM 39.0 °F 29.9 °F 27.0 °F 62% 30.25 in 10.0 mi NNW 17.3 mph 24.2 mph N/A   Mostly Cloudy
11:53 AM 39.9 °F 33.9 °F 27.0 °F 60% 30.26 in 10.0 mi NNW 9.2 mph 18.4 mph N/A   Overcast
12:53 PM 42.1 °F 34.9 °F 28.0 °F 58% 30.24 in 10.0 mi NNW 13.8 mph 17.3 mph N/A   Mostly Cloudy
1:53 PM 44.1 °F 37.7 °F 28.9 °F 55% 30.23 in 10.0 mi North 12.7 mph - N/A   Overcast
2:53 PM 43.0 °F 35.7 °F 28.9 °F 58% 30.24 in 10.0 mi WNW 15.0 mph - N/A   Overcast
3:53 PM 43.0 °F 37.7 °F 28.9 °F 58% 30.25 in 10.0 mi NW 9.2 mph - N/A   Overcast
4:53 PM 43.0 °F 37.7 °F 28.9 °F 58% 30.26 in 10.0 mi NNW 9.2 mph - N/A   Overcast
5:53 PM 41.0 °F 35.8 °F 28.9 °F 62% 30.27 in 10.0 mi NNW 8.1 mph - N/A   Overcast
6:53 PM 39.0 °F 34.8 °F 28.0 °F 65% 30.27 in 10.0 mi North 5.8 mph - N/A   Partly Cloudy
7:53 PM 37.0 °F 32.4 °F 28.0 °F 70% 30.27 in 10.0 mi North 5.8 mph - N/A   Clear
8:53 PM 34.0 °F 28.8 °F 28.0 °F 79% 30.26 in 10.0 mi North 5.8 mph - N/A   Clear
9:53 PM 34.0 °F 29.8 °F 27.0 °F 75% 30.29 in 10.0 mi NNW 4.6 mph - N/A   Clear
10:53 PM 33.1 °F 26.9 °F 26.1 °F 75% 30.29 in 10.0 mi NNE 6.9 mph - N/A   Partly Cloudy
11:53 PM 32.0 °F 27.5 °F 26.1 °F 79% 30.29 in 10.0 mi NNW 4.6 mph - N/A   Partly Cloudy